Previsão horária em Abeokuta

Hoje, 12 Abril, Segunda-feira

Tempo Temperatura Precipitação Vento Pressão Humidade
00:00 +28°C° 0 mm 2 m/s 751 mmHg 87%
01:00 +28°C° 0 mm 2 m/s 751 mmHg 88%
02:00 +28°C° 0 mm 2 m/s 750 mmHg 88%
03:00 +27°C° 0 mm 2 m/s 750 mmHg 89%
04:00 +27°C° 0 mm 2 m/s 750 mmHg 90%
05:00 +27°C° 0 mm 2 m/s 750 mmHg 90%
06:00 +27°C° 0 mm 1 m/s 751 mmHg 91%
07:00 +29°C° 0 mm 1 m/s 751 mmHg 80%
08:00 +31°C° 0 mm 2 m/s 751 mmHg 69%
09:00 +34°C° 0 mm 2 m/s 751 mmHg 57%
10:00 +36°C° 0 mm 2 m/s 751 mmHg 49%
11:00 +39°C° 0 mm 1 m/s 750 mmHg 41%
12:00 +41°C° 0 mm 1 m/s 750 mmHg 32%
13:00 +40°C° 0 mm 2 m/s 749 mmHg 33%
14:00 +39°C° 0 mm 2 m/s 748 mmHg 34%
15:00 +38°C° 0 mm 2 m/s 748 mmHg 35%
16:00 +37°C° 0 mm 2 m/s 748 mmHg 40%
17:00 +35°C° 0 mm 2 m/s 748 mmHg 44%
18:00 +34°C° 0 mm 3 m/s 749 mmHg 49%
19:00 +32°C° 0 mm 2 m/s 749 mmHg 56%
20:00 +31°C° 0 mm 2 m/s 750 mmHg 63%
21:00 +29°C° 0 mm 2 m/s 750 mmHg 69%
22:00 +29°C° 0 mm 2 m/s 750 mmHg 73%
23:00 +29°C° 0 mm 1 m/s 750 mmHg 76%

Amanhã, 13 Abril, Terça-feira

Tempo Temperatura Precipitação Vento Pressão Humidade
00:00 +28°C° 0 mm 1 m/s 751 mmHg 80%
01:00 +28°C° 0 mm 1 m/s 750 mmHg 82%
02:00 +28°C° 0 mm 1 m/s 750 mmHg 85%
03:00 +27°C° 0 mm 1 m/s 750 mmHg 87%
04:00 +27°C° 0 mm 1 m/s 750 mmHg 88%
05:00 +27°C° 0 mm 1 m/s 751 mmHg 89%
06:00 +28°C° 0 mm 1 m/s 751 mmHg 90%
07:00 +29°C° 0 mm 1 m/s 752 mmHg 80%
08:00 +31°C° 0 mm 2 m/s 752 mmHg 70%
09:00 +34°C° 0 mm 2 m/s 753 mmHg 59%
10:00 +36°C° 0 mm 3 m/s 752 mmHg 54%
11:00 +37°C° 0 mm 3 m/s 752 mmHg 49%
12:00 +38°C° 0 mm 3 m/s 751 mmHg 44%
13:00 +38°C° 0 mm 3 m/s 750 mmHg 43%
14:00 +38°C° 0 mm 4 m/s 750 mmHg 43%
15:00 +38°C° 0 mm 4 m/s 749 mmHg 42%
16:00 +36°C° 0.2 mm 4 m/s 749 mmHg 49%
17:00 +34°C° 0.2 mm 4 m/s 749 mmHg 56%
18:00 +32°C° 0.2 mm 4 m/s 750 mmHg 63%
19:00 +31°C° 0.2 mm 3 m/s 750 mmHg 69%
20:00 +30°C° 0.2 mm 2 m/s 751 mmHg 75%
21:00 +29°C° 0.2 mm 2 m/s 752 mmHg 81%
22:00 +29°C° 0 mm 2 m/s 752 mmHg 82%
23:00 +28°C° 0 mm 2 m/s 751 mmHg 84%

Depois de amanhã, 14 Abril, Quarta-feira

Tempo Temperatura Precipitação Vento Pressão Humidade
00:00 +28°C° 0 mm 3 m/s 751 mmHg 85%
01:00 +28°C° 0 mm 2 m/s 751 mmHg 87%
02:00 +28°C° 0 mm 1 m/s 750 mmHg 88%
03:00 +27°C° 0 mm 1 m/s 750 mmHg 90%
04:00 +27°C° 0 mm 1 m/s 750 mmHg 90%
05:00 +27°C° 0 mm 1 m/s 750 mmHg 90%
06:00 +27°C° 0 mm 1 m/s 751 mmHg 91%
07:00 +29°C° 0 mm 1 m/s 751 mmHg 80%
08:00 +31°C° 0 mm 2 m/s 751 mmHg 69%
09:00 +34°C° 0 mm 2 m/s 752 mmHg 58%
10:00 +36°C° 0 mm 2 m/s 751 mmHg 51%
11:00 +38°C° 0 mm 2 m/s 751 mmHg 44%
12:00 +40°C° 0 mm 2 m/s 750 mmHg 38%
13:00 +40°C° 0 mm 3 m/s 749 mmHg 37%
14:00 +40°C° 0 mm 3 m/s 749 mmHg 36%
15:00 +41°C° 0 mm 4 m/s 748 mmHg 35%
16:00 +37°C° 2.1 mm 4 m/s 749 mmHg 49%
17:00 +34°C° 2.1 mm 4 m/s 749 mmHg 62%
18:00 +29°C° 2.1 mm 4 m/s 750 mmHg 75%
19:00 +29°C° 0.3 mm 3 m/s 750 mmHg 76%
20:00 +29°C° 0.3 mm 3 m/s 751 mmHg 76%
21:00 +29°C° 0.3 mm 2 m/s 751 mmHg 76%
22:00 +29°C° 0 mm 2 m/s 751 mmHg 78%
23:00 +29°C° 0 mm 2 m/s 751 mmHg 80%

15 Abril, Quinta-feira

Tempo Temperatura Precipitação Vento Pressão Humidade
00:00 +28°C° 0 mm 2 m/s 751 mmHg 82%
01:00 +28°C° 0 mm 2 m/s 751 mmHg 83%
02:00 +28°C° 0 mm 2 m/s 750 mmHg 85%
03:00 +28°C° 0 mm 1 m/s 750 mmHg 86%
04:00 +28°C° 0 mm 1 m/s 750 mmHg 87%
05:00 +28°C° 0 mm 1 m/s 750 mmHg 88%
06:00 +27°C° 0 mm 1 m/s 751 mmHg 89%
07:00 +29°C° 0 mm 1 m/s 751 mmHg 79%
08:00 +31°C° 0 mm 2 m/s 751 mmHg 69%
09:00 +34°C° 0 mm 2 m/s 752 mmHg 59%
10:00 +36°C° 0 mm 2 m/s 751 mmHg 52%
11:00 +38°C° 0 mm 2 m/s 750 mmHg 46%
12:00 +40°C° 0 mm 2 m/s 750 mmHg 39%
13:00 +40°C° 0 mm 2 m/s 749 mmHg 38%
14:00 +40°C° 0 mm 2 m/s 748 mmHg 37%
15:00 +40°C° 0 mm 3 m/s 747 mmHg 36%
16:00 +37°C° 1.5 mm 3 m/s 748 mmHg 50%
17:00 +33°C° 1.5 mm 4 m/s 748 mmHg 64%
18:00 +29°C° 1.5 mm 4 m/s 748 mmHg 79%
19:00 +29°C° 0.2 mm 4 m/s 749 mmHg 78%
20:00 +29°C° 0.2 mm 3 m/s 749 mmHg 78%
21:00 +29°C° 0.2 mm 2 m/s 750 mmHg 77%
22:00 +29°C° 0 mm 2 m/s 750 mmHg 80%
23:00 +28°C° 0 mm 2 m/s 749 mmHg 82%

16 Abril, Sexta-feira

Tempo Temperatura Precipitação Vento Pressão Humidade
00:00 +28°C° 0 mm 2 m/s 749 mmHg 85%
01:00 +28°C° 0 mm 2 m/s 749 mmHg 86%
02:00 +28°C° 0 mm 2 m/s 749 mmHg 88%
03:00 +27°C° 0 mm 1 m/s 749 mmHg 90%
04:00 +27°C° 0 mm 1 m/s 749 mmHg 91%
05:00 +27°C° 0 mm 1 m/s 749 mmHg 91%
06:00 +27°C° 0 mm 1 m/s 750 mmHg 92%
07:00 +29°C° 0 mm 1 m/s 750 mmHg 81%
08:00 +31°C° 0 mm 2 m/s 751 mmHg 70%
09:00 +34°C° 0 mm 2 m/s 751 mmHg 59%
10:00 +36°C° 0 mm 3 m/s 750 mmHg 53%
11:00 +37°C° 0 mm 3 m/s 750 mmHg 47%
12:00 +39°C° 0 mm 3 m/s 749 mmHg 40%
13:00 +39°C° 0 mm 3 m/s 749 mmHg 40%
14:00 +40°C° 0 mm 4 m/s 748 mmHg 40%
15:00 +40°C° 0 mm 4 m/s 747 mmHg 40%
16:00 +36°C° 1.1 mm 4 m/s 748 mmHg 49%
17:00 +34°C° 1.1 mm 3 m/s 748 mmHg 59%
18:00 +30°C° 1.1 mm 2 m/s 749 mmHg 69%
19:00 +30°C° 0.1 mm 2 m/s 749 mmHg 72%
20:00 +29°C° 0.1 mm 1 m/s 750 mmHg 76%
21:00 +29°C° 0.1 mm 1 m/s 751 mmHg 79%
22:00 +29°C° 0 mm 2 m/s 751 mmHg 81%
23:00 +28°C° 0 mm 2 m/s 750 mmHg 83%

17 Abril, Sábado

Tempo Temperatura Precipitação Vento Pressão Humidade
00:00 +28°C° 0 mm 3 m/s 750 mmHg 86%
01:00 +28°C° 0 mm 3 m/s 749 mmHg 86%
02:00 +28°C° 0 mm 2 m/s 749 mmHg 87%
03:00 +27°C° 0 mm 2 m/s 749 mmHg 88%
04:00 +27°C° 0 mm 2 m/s 749 mmHg 88%
05:00 +27°C° 0 mm 1 m/s 750 mmHg 88%
06:00 +27°C° 0 mm 1 m/s 750 mmHg 89%
07:00 +29°C° 0 mm 1 m/s 750 mmHg 79%
08:00 +31°C° 0 mm 2 m/s 751 mmHg 70%
09:00 +34°C° 0 mm 3 m/s 751 mmHg 61%
10:00 +35°C° 0 mm 3 m/s 751 mmHg 56%
11:00 +36°C° 0 mm 3 m/s 750 mmHg 51%
12:00 +38°C° 0 mm 3 m/s 750 mmHg 46%
13:00 +37°C° 0 mm 3 m/s 749 mmHg 47%
14:00 +37°C° 0 mm 4 m/s 749 mmHg 48%
15:00 +36°C° 0 mm 4 m/s 748 mmHg 50%
16:00 +35°C° 0 mm 4 m/s 748 mmHg 54%
17:00 +34°C° 0 mm 4 m/s 748 mmHg 57%
18:00 +33°C° 0 mm 4 m/s 749 mmHg 61%
19:00 +31°C° 0 mm 3 m/s 749 mmHg 67%
20:00 +30°C° 0 mm 3 m/s 750 mmHg 73%
21:00 +29°C° 0 mm 2 m/s 751 mmHg 78%
22:00 +29°C° 0 mm 2 m/s 751 mmHg 80%
23:00 +28°C° 0 mm 2 m/s 751 mmHg 83%
Mostrar mais